Location: Newark
(52.2090°N, 4.1550°W)
Time: 04:38:25
(UTC+00:00)

deb Explorer IX - Visible Passes

Search period start: 16 September 2019 00:00
Search period end: 26 September 2019 00:00
Orbit: 543 x 1107 km, 38.8° (Epoch: 14 September)

Date Brightness Start Highest point End Pass type
(mag) Time Alt. Az. Time Alt. Az. Time Alt. Az.
17 Sep ? 03:28:42 10° SSE 03:28:42 10° SSE 03:28:52 10° SSE visible
17 Sep ? 05:11:36 10° SSW 05:13:41 13° S 05:15:44 10° SSE visible
18 Sep ? 04:49:34 10° SW 04:51:49 14° S 04:53:58 10° SSE visible
19 Sep ? 04:28:36 13° SSW 04:29:55 14° S 04:32:12 10° SSE visible
20 Sep ? 04:07:54 15° S 04:08:02 15° S 04:10:28 10° SSE visible
21 Sep ? 03:47:13 14° S 03:47:13 14° S 03:48:44 10° SSE visible
22 Sep ? 03:26:37 11° SSE 03:26:37 11° SSE 03:27:01 10° SSE visible
